N939DJ KJAX-KMIA

Flight info

Callsign N939DJ
Flight time N/A
Altitude 29000
Route EXBOX2 EXBOX PRMUS/N0412F280 DEBRL CSTAL3
Aircraft HDJT/L-SABDGRWY/H

Departure

Time 2026-05-04 18:55
Airport Jacksonville International Airport (KJAX)

Arrival

Time N/A
Airport Miami International Airport (KMIA)
Time Latitude Longitude Altitude Speed Heading
2026-05-04 18:31 30.49779 -81.68225 30 ft 0 kts 71°
2026-05-04 18:51 30.49796 -81.68172 30 ft 23 kts 70°
2026-05-04 18:51 30.49854 -81.67950 31 ft 23 kts 86°
2026-05-04 18:51 30.49909 -81.67923 30 ft 12 kts 325°
2026-05-04 18:52 30.50028 -81.67974 32 ft 14 kts 338°
2026-05-04 18:52 30.50047 -81.67993 33 ft 11 kts 308°
2026-05-04 18:52 30.50022 -81.68135 34 ft 27 kts 250°
2026-05-04 18:52 30.49938 -81.68368 30 ft 36 kts 251°
2026-05-04 18:53 30.49871 -81.68594 32 ft 18 kts 254°
2026-05-04 18:53 30.49810 -81.68811 34 ft 39 kts 251°
2026-05-04 18:53 30.49705 -81.69156 35 ft 52 kts 251°
2026-05-04 18:53 30.49597 -81.69496 35 ft 31 kts 254°
2026-05-04 18:54 30.49504 -81.69791 29 ft 47 kts 252°
2026-05-04 18:54 30.49612 -81.69962 29 ft 34 kts 10°
2026-05-04 18:54 30.49668 -81.69848 31 ft 18 kts 73°
2026-05-04 18:54 30.49725 -81.69657 31 ft 32 kts 70°
2026-05-04 18:55 30.49836 -81.69291 35 ft 76 kts 65°
2026-05-04 18:55 30.50391 -81.67414 650 ft 150 kts 72°
2026-05-04 18:55 30.50795 -81.66206 1222 ft 172 kts 69°
2026-05-04 18:56 30.51271 -81.64822 1587 ft 196 kts 70°
2026-05-04 18:56 30.51820 -81.63226 2173 ft 232 kts 70°
2026-05-04 18:56 30.52541 -81.61430 3003 ft 260 kts 66°
2026-05-04 18:56 30.53262 -81.59283 3008 ft 310 kts 71°